Location: Asbach
(48.5226°N, 10.7301°E)
Time: 22:36:01
(UTC+00:00)

Daily predictions for brighter satellites

Satellite Brightness Start Highest point End
(mag) Time Altitude Azimuth Time Altitude Azimuth Time Altitude Azimuth
BREEZE-M DEB (TANK) 2.3 15:45:54 10° W 15:48:26 79° N 15:54:52 10° E
Cosmos 2266 Rocket 4.0 15:45:33 10° N 15:51:36 58° ENE 15:57:32 10° SSE
Cosmos 1354 Rocket 4.2 15:48:05 10° S 15:53:11 55° ESE 15:58:19 10° NNE
Cosmos 1544 Rocket 3.8 15:49:30 10° SSW 15:53:55 79° W 15:58:23 10° N
Thor Agena Rocket 3.8 15:49:42 10° SE 15:54:38 46° ENE 15:59:31 10° N
Cosmos 1933 3.8 15:52:21 10° SSE 15:55:53 37° E 15:59:26 10° NNE
BREEZE-M DEB (TANK) 3.0 15:55:30 10° W 15:58:09 78° N 16:05:22 10° E
Cosmos 2227 Rocket 2.2 15:54:03 10° NNW 15:59:44 77° ENE 16:05:23 10° SSE
Cosmos 2369 Rocket 4.4 15:59:25 10° WNW 16:01:56 13° NNW 16:04:29 10° N
Cosmos 1726 Rocket 4.3 16:01:26 10° SSE 16:05:38 35° E 16:09:46 10° NNE
Meteor 1-25 Rocket 4.3 16:00:05 10° N 16:05:54 68° ENE 16:11:36 10° SSE
Cosmos 1697 Rocket 2.7 16:03:10 10° SSW 16:08:46 77° ESE 16:14:24 10° NNE
Cosmos 990 Rocket 4.0 16:05:34 10° S 16:10:38 66° ESE 16:15:46 10° NNE
IRIDIUM 104 4.3 16:05:27 10° N 16:10:42 72° E 16:15:54 10° S
CZ-4C R/B 3.7 16:05:20 10° NW 16:12:18 61° SW 16:20:50 10° SSE
SJ-12 4.5 16:09:44 10° SE 16:13:03 30° ENE 16:16:24 10° N
Cosmos 1602 Rocket 4.0 16:10:52 10° NNW 16:15:14 68° W 16:19:30 10° S
YAOGAN 1 4.1 16:14:00 10° E 16:16:21 15° ENE 16:18:41 10° NNE
IRIDIUM 114 4.3 16:14:35 10° N 16:19:51 85° E 16:25:04 10° S
UNK 3.9 16:18:54 10° NNE 16:23:23 52° E 16:27:49 10° S
NOSS 3-2 (A) 4.4 16:20:22 10° W 16:25:14 34° NNW 16:31:05 10° NE
IRIDIUM 103 4.5 16:23:46 10° N 16:29:00 81° W 16:34:13 10° S
NOSS 3-2 (C) 3.7 16:24:40 10° WSW 16:29:44 55° NW 16:35:54 10° NE
Okean 1-7 Rocket 4.0 16:28:04 10° NNW 16:32:25 66° W 16:36:43 10° S
COSMO-SKYMED 1 4.2 16:32:40 13° E 16:32:40 13° E 16:34:40 10° ESE
GEOS 3 Rocket 4.2 16:28:27 12° NE 16:33:05 43° ESE 16:38:10 10° SSW
Cosmos 1461 4.3 16:32:50 10° W 16:36:14 27° NW 16:39:38 10° NNE
Aureole 1 Rocket 3.7 16:32:00 10° S 16:36:36 55° ESE 16:42:26 10° NNE
CZ-2D R/B 2.7 16:36:34 10° SSE 16:39:38 56° ENE 16:42:44 10° N
ARIANE 5 R/B 2.4 16:35:44 10° SSE 16:40:48 73° ENE 16:45:58 10° NNW
Cosmos 1953 Rocket 3.5 16:36:24 10° N 16:40:51 68° ENE 16:45:17 10° SSE
Cosmos 1076 Rocket 3.4 16:38:50 10° N 16:43:10 78° E 16:47:30 10° SSE
Cosmos 1680 Rocket 4.1 16:39:20 10° N 16:44:04 33° NE 16:48:47 10° ESE
Okean 1 3.9 16:41:29 10° SSE 16:44:35 28° E 16:45:59 21° NE
Meteor 1-28 Rocket 3.7 16:41:35 10° N 16:44:51 50° WNW 16:48:04 10° SSW
Cosmos 1825 Rocket 4.0 16:42:57 10° NNW 16:47:14 62° W 16:51:28 10° S
Cosmos 2082 3.7 16:43:52 10° NNW 16:49:34 62° ENE 16:55:14 10° SE
Gbstr 26 Del rocket 2.8 16:47:09 10° W 16:51:15 67° NNW 16:53:16 26° ENE
SL-16 R/B 3.2 16:46:36 10° N 16:52:40 56° WNW 16:58:40 10° SW
SMAP 3.5 16:50:00 10° S 16:54:36 66° WSW 16:59:16 10° NNW
CENTAUR R/B 4.1 16:49:21 10° WNW 16:54:54 27° N 17:00:05 14° NE
NOSS 2-3 (C) 3.2 16:52:57 10° SW 16:56:23 67° NW 16:58:36 22° NNE
Landsat 7 3.9 16:53:24 10° S 16:58:03 77° WSW 17:02:44 10° NNW
CZ-4 R/B 4.4 16:56:09 10° SSE 16:59:57 49° ENE 17:03:47 10° N
SL-16 R/B 3.3 16:57:34 10° SSE 17:01:50 23° ESE 17:02:28 22° E
MOS 1 Rocket 3.5 16:58:07 10° SSE 17:03:10 88° ENE 17:08:30 10° NNW
SAR-Lupe-4 4.0 17:03:34 10° S 17:07:05 62° WSW 17:10:38 10° NNW
NOSS 2-3 (D) 3.9 17:03:56 10° WSW 17:07:30 47° NW 17:09:39 22° NNE
IRS-1C 4.4 17:02:57 10° S 17:08:15 70° WSW 17:13:36 10° NNW
USA 81 3.9 17:03:02 10° N 17:08:21 79° E 17:13:37 10° S
Meteor 2-10 4.1 17:03:42 10° NNW 17:09:10 89° W 17:14:47 10° S
NOSS 2-3 (E) 4.1 17:06:00 10° WSW 17:09:30 43° NW 17:11:38 22° NNE
Cosmos 1844 Rocket 3.1 17:05:29 10° NNW 17:10:48 39° NE 17:13:38 24° ESE
BREEZE-M DEB (TANK) 4.3 17:04:32 10° SSW 17:11:39 31° SSE 17:13:34 24° ESE
SPOT 1/Viking Rocket 3.5 17:06:32 10° SSE 17:11:42 68° ENE 17:16:53 10° N
Cosmos 1980 Rocket 2.3 17:08:26 10° SSW 17:14:06 76° WNW 17:18:41 16° NNE
Cosmos 2219 3.5 17:12:29 10° NNW 17:18:13 71° WSW 17:23:55 10° SSE
Cosmos-2242 2.9 17:14:34 10° S 17:18:49 87° E 17:22:14 16° N
Cosmos 2263 Rocket 3.3 17:14:23 10° NW 17:19:49 47° WSW 17:25:14 10° S
Lacrosse 5 rocket 2.2 17:17:02 10° NW 17:20:00 27° N 17:20:00 27° N
Cosmos 2058 Rocket 3.1 17:15:54 10° S 17:20:23 85° W 17:24:37 12° N
Meteor 2-11 Rocket 4.4 17:18:01 10° N 17:24:09 61° ENE 17:30:12 10° SSE
Cosmos 2278 4.4 17:23:27 10° SSE 17:28:13 31° ESE 17:28:13 31° ESE
USA 238 DEB 3.8 17:25:18 10° SW 17:31:26 67° NW 17:35:37 24° NNE
USA 238 3.8 17:25:23 10° SW 17:31:32 67° NW 17:35:43 24° NNE
Cosmos 372 Rocket 4.4 17:26:53 10° SW 17:31:58 61° WNW 17:35:45 18° NNE
CZ-2D R/B 3.3 17:28:05 10° SSE 17:32:15 83° ENE 17:36:22 10° NNW
USA 215 3.9 17:30:23 29° NE 17:33:09 43° N 17:39:15 10° WNW
Cosmos 1805 3.8 17:30:48 10° NNW 17:34:04 49° W 17:37:19 10° S
Meteor 1-26 Rocket 4.1 17:28:51 10° SSW 17:34:15 82° WNW 17:39:41 10° N
Cosmos 2369 3.7 17:30:41 10° SSW 17:36:24 87° WNW 17:39:37 28° NNE
Meteor 2-2 Rocket 4.2 17:31:45 10° SSW 17:37:22 81° WNW 17:43:03 10° N
Resurs 1-3 3.4 17:33:42 10° SSE 17:37:59 79° ENE 17:42:19 10° N
Cosmos 1898 Rocket 3.8 17:34:19 10° SSW 17:39:26 65° WNW 17:42:46 22° NNE
USA 308 3.6 17:37:27 10° SSW 17:39:43 33° S 17:39:43 33° S
Spot 4 Rocket 3.9 17:37:32 10° SSE 17:42:39 89° ENE 17:47:48 10° NNW
COSMOS 2455 2.8 17:39:36 10° SSW 17:45:33 67° ESE 17:47:15 46° ENE
Cosmos 2360 Rocket 3.9 17:42:07 10° SSE 17:43:42 17° SE 17:43:42 17° SE
Cosmos 2112 Rocket 3.8 17:41:39 10° NNW 17:46:54 82° ENE 17:50:58 17° SSE
Cosmos 44 Rocket 3.3 17:46:16 10° NW 17:51:26 78° NE 17:52:18 61° ESE
Cosmos 1937 Rocket 3.7 17:46:29 10° SSW 17:51:38 68° WNW 17:53:59 32° N
YAOGAN 1 2.6 17:47:24 10° S 17:51:39 74° WSW 17:55:55 10° NNW
EXPRESS MD2 3.8 17:49:45 10° WSW 17:51:41 45° WSW 17:51:41 45° WSW
Cosmos 858 Rocket 4.4 17:51:07 10° SSW 17:56:18 85° WNW 17:57:41 50° NNE
PSLV R/B 3.4 17:52:46 10° S 17:56:48 76° WSW 18:00:53 10° NNW
SL-19 R/B 4.3 17:53:25 10° SSE 17:58:53 81° WSW 18:04:43 10° NNW
Cosmos 494 Rocket 3.9 17:56:18 10° NNW 18:01:35 90° N 18:03:06 48° SSE
Cosmos 1553 Rocket 4.3 17:59:12 10° SSW 18:05:21 65° WNW 18:11:38 10° N
Cosmos 2278 Rocket 4.5 18:03:28 10° N 18:03:43 11° N 18:03:43 11° N
S3M 3.9 18:00:41 10° S 18:06:57 68° E 18:08:06 57° NE
BREEZE-M DEB (TANK) 4.2 17:44:51 10° WNW 18:07:04 76° SSW 18:09:21 44° SE
COSMO-SKYMED 1 3.0 18:08:59 56° WSW 18:08:59 56° WSW 18:12:26 10° SSW
Cosmos 2333 Rocket 2.8 18:03:30 10° S 18:07:40 43° SSE 18:07:40 43° SSE
BREEZE-M DEB (TANK) 4.4 18:07:24 10° W 18:07:53 17° W 18:07:53 17° W
GEOS 3 Rocket 4.4 18:09:31 38° N 18:11:04 49° NW 18:16:14 10° WSW
Cosmos 2322 Rocket 3.5 18:08:18 10° S 18:11:02 27° SSE 18:11:02 27° SSE
Cosmos 1709 Rocket 3.7 18:10:24 10° N 18:16:32 79° E 18:17:15 69° SE
SL-24 R/B - RUBIN 2 4.1 18:12:58 10° SW 18:18:13 63° NW 18:18:13 63° NW
Cosmos 1745 Rocket 4.0 18:15:28 10° NNW 18:21:37 74° W 18:27:43 10° S
USA 59 Rocket 2.5 18:18:50 10° SSW 18:18:53 10° SSW 18:18:53 10° SSW
Cosmos 1844 3.8 18:22:30 10° NNW 18:28:04 70° WSW 18:28:19 68° SW
Meteor 1-11 Rocket 4.4 18:29:15 10° NNW 18:33:22 47° NNW 18:33:22 47° NNW
SL-16 R/B 2.7 18:39:46 10° SW 18:44:21 55° WSW 18:44:21 55° WSW
CENTAUR R/B 4.1 18:41:28 10° NW 18:47:12 30° N 18:47:12 30° N
Cosmos 1844 Rocket 3.8 18:49:26 10° NW 18:54:42 41° WSW 18:55:23 39° SW
Cosmos 1980 Rocket 4.3 18:55:10 10° W 18:59:03 19° NW 19:00:27 17° NNW
USA 215 4.2 19:17:44 40° NW 19:17:44 40° NW 19:21:58 10° NW
